www.pogodaiklimat.ru
ПОГОДА в Банмо
Время
(UTC), дата
09 10.11
12 10.11
00 11.11
03 11.11
06 11.11
09 11.11
12 11.11
00 12.11
03 12.11
06 12.11
09 12.11
12 12.11
00 13.11
03 13.11
06 13.11
09 13.11
12 13.11
00 14.11
03 14.11
06 14.11
09 14.11
12 14.11
00 15.11
03 15.11
06 15.11
09 15.11
12 15.11
00 16.11
03 16.11
06 16.11
09 16.11
12 16.11
00 17.11
03 17.11
06 17.11
Ветер
(напр.,м/с)
Видим. Явления Облачность Т
(С)
Тd
(С)
f
(%)
Тe
(С)
Тes
(С)
Комфортность P
(гПа)
Po
(гПа)
Тmin
(С)
Tmax
(С)
R
(мм)
R24
(мм)
S
(см)
ЮЗ 2 10 км 9/5 300 м
[St Ac cuf]
+28.3 +22.0 69 +37 +38 очень
душно
1008.8 996.0
ЮЗ 1 4000 м 9/6 300 м
[Frnb Ac As]
+25.0 +21.9 83 +32 +32 очень
душно
1008.8 995.8 +29.1
штиль 0 4000 м слаб. дождь 10/10 300 м
[Frnb]
+21.2 +21.2 100 +27 +27 душно 1009.4 996.2 +21.0 9
штиль 0 7000 м {дождь} 10/6 300 м
[Frnb Ac As]
+22.3 +20.5 90 +29 +30 очень
душно
1011.6 998.5
ЮЗ 1 8000 м 10/6 300 м
[Frnb Ac As]
+24.0 +22.6 92 +31 +33 очень
душно
1010.2 997.2
штиль 0 8000 м 10/6 300 м
[Frnb Ac As]
+24.7 +21.9 84 +32 +32 очень
душно
1008.7 995.7
штиль 0 4000 м 10/10 300 м
[Frnb]
+23.7 +22.6 94 +31 +31 очень
душно
1008.8 995.8 +25.2 1
штиль 0 4000 м 10/6 300 м
[Frnb Ac As]
+22.1 +22.1 100 +29 +29 очень
душно
1009.6 996.5 +22.0
штиль 0 8000 м 8/5 300 м
[Frnb Ac cuf]
+25.1 +21.9 82 +32 +35 очень
душно
1012.6 999.6
штиль 0 10 км 3/3 300 м
[Cu hum]
+29.5 +23.9 72 +41 +52 опасность
перегрева
1011.6 998.8
штиль 0 10 км 3/1 300 м
[Cu med, cong Ac trans]
+30.6 +23.7 67 +42 +45 опасность
перегрева
1009.0 996.3
штиль 0 4000 м 1/1 300 м
[Cu med, cong]
+26.8 +24.0 85 +37 +37 очень
душно
1009.3 996.4 +31.0
штиль 0 4000 м ясно +21.0 +19.5 91 +25 +25 комфорт 1011.6 998.4 +20.6
С 1 10 км туман местами 1/1 300 м
[Cu hum]
+25.4 +21.9 81 +33 +40 очень
душно
1014.6 1001.6
СВ 2 10 км ясно +30.0 +22.3 63 +39 +50 очень
душно
1012.9 1000.1
СВ 1 10 км 1/1 300 м
[Cu med, cong]
+31.3 +22.5 60 +41 +44 опасность
перегрева
1011.6 998.8
штиль 0 4000 м ясно +26.8 +25.6 93 +39 +39 очень
душно
1012.4 999.4 +32.0
штиль 0 1000 м туман на расстоянии ясно +20.0 +18.5 91 +23 +23 комфорт 1015.9 1002.6 +19.9
ЮЗ 1 10 км ясно +25.8 +21.5 77 +33 +40 очень
душно
1016.3 1003.3
ЮЗ 2 10 км ясно +30.3 +20.7 57 +38 +49 очень
душно
1014.2 1001.4
СВ 1 10 км ясно +31.2 +14.6 37 +33 +37 жарко 1011.3 998.5
штиль 0 4000 м ясно +26.5 +22.9 81 +35 +35 очень
душно
1011.9 998.9 +32.2
штиль 0 1000 м туман ясно +20.0 +18.5 91 +23 +23 комфорт 1013.0 999.7 +19.6
ЮЗ 1 10 км ясно +25.1 +20.5 76 +31 +39 очень
душно
1014.5 1001.4
штиль 0 10 км ясно +31.0 +20.3 53 +38 +53 опасность
солнечного
удара
1012.1 999.3
штиль 0 10 км 1/1 300 м
[Cu med, cong]
+32.8 +23.4 58 +44 +48 опасность
перегрева
1009.8 997.1
штиль 0 4000 м ясно +25.9 +21.5 77 +33 +33 очень
душно
1010.3 997.3 +33.5
штиль 0 4000 м 4/1 300 м
[Cu hum Ci fib]
+18.8 +17.5 92 +20 +20 тепло 1012.1 998.8 +18.5
штиль 0 5000 м ясно +25.0 +18.6 68 +30 +38 душно 1013.7 1000.7
штиль 0 10 км ясно +30.2 +20.7 57 +37 +52 опасность
солнечного
удара
1011.4 998.6
штиль 0 10 км ясно +31.7 +20.0 50 +38 +42 очень
душно
1008.9 996.2
штиль 0 4000 м ясно +26.3 +21.5 75 +34 +34 очень
душно
1009.5 996.6 +32.0
штиль 0 5000 м ясно +17.9 +16.5 92 +18 +18 тепло 1011.8 998.5 +17.6
штиль 0 10 км 1/0
[]
+24.5 +17.4 65 +29 +37 душно 1013.2 1000.1
ЮЗ 1 10 км ясно +29.4 +19.6 56 +35 +48 очень
душно
1011.6 998.8
Местоположение метеостанции Банмо (Мьянма): широта 24.27 долгота 97.20 высота над уровнем моря 113 м.
В архиве по умолчанию представлена погода в Банмо за последнюю неделю. Архивные данные за месяц целиком и за предыдущие месяцы, начиная с января 2011 года, Вы можете получить, выбрав интересующий диапазон дат из раскрывающегося списка и нажав кнопку "Найти!".
*Определитесь, кто Вы:
Внимание! Время в таблицах - всемирное. Для получения местного времени необходимо прибавить поправку, которая равна 6.5 ч.
Смотрите также архив погоды в соседних городах и на ближайших метеорологических станциях:
Партнеры нашего сайта:      
Пояснения к столбцам:
  • Ветер - указаны скорость ветра в м/с - средняя за 10 мин, порывы в срок и между сроками (в фигурных скобках) и направление, откуда дует ветер: С - северный,
  • СВ - северо-восточный, В - восточный, ЮВ - юго-восточный, Ю - южный, ЮЗ - юго-западный, З - западный, СЗ - северо-западный.
  • Видимость - горизонтальная дальность видимости в метрах или километрах. При видимости от 1 до 10 км при отсутствии осадков обычно наблюдается дымка, при ухудшении видимости до 1 км и менее - туман. В сухую погоду видимость может ухудшаться дымом, пылью или мглою.
  • Явления - указаны атмосферные явления, наблюдавшиеся в срок или в последний час перед сроком; фигурными скобками обозначены явления, наблюдавшиеся между сроками (за 1-3 часа до срока); квадратными скобками обозначены град или гололедные отложения с указанием их диаметра в мм.
  • Облачность - указаны через наклонную черту общая и нижняя облачность в баллах и высота нижней границы облаков в метрах; квадратными скобками обозначены формы облаков: Ci - перистые, Cs - перисто-слоистые, Cc - перисто-кучевые, Ac - высококучевые, As - высокослоистые, Sc - слоисто-кучевые, Ns - слоисто-дождевые, Cu - кучевые, Cb - кучево-дождевые. Подробнее классификацию облаков см. в Атласе облаков (PDF).
  • T - Температура воздуха - температура, измеренная на высоте 2 м над землей.
  • Td - Температура точки росы - температура, при понижении до которой содержащийся в воздухе водяной пар достигнет насыщения.
  • f - Относительная влажность воздуха - влажноcть воздуха, измеренная на высоте 2 м над землей.
  • Te - Эффективная температура - температура, которую ощущает одетый по сезону человек в тени. Характеристика душности погоды. При расчете учитывается влияние влажности воздуха и скорости ветра на теплоощущения человека.
  • Tes - Эффективная температура на солнце - температура, которую ощущает человек, с поправкой на солнечный нагрев. Характеристика знойности погоды. Зависит от высоты солнца над горизонтом, облачности и скорости ветра. Ночью, в пасмурную погоду, а также при ветре 12 м/с и более поправка равна нулю.
  • P - Атмосферное давление - приведенное к уровню моря атмосферное давление.
  • Po - Атмосферное давление - измеренное на уровне метеостанции атмосферное давление.
  • Tmin - Минимальная температура - минимум температуры воздуха на высоте 2 м над землей.
  • Tmax - Максимальная температура - максимум температуры воздуха на высоте 2 м над землей.
  • R - Количество осадков - Количество выпавших осадков за период времени, мм. При наведении курсора мыши на число - период времени, за который выпало указанное количество осадков.
  • R24 - Количество осадков - Количество выпавших осадков за 24 часа, мм.
  • S - Снежный покров - Высота снежного покрова, см. При наведении курсора мыши на число - состояние снежного покрова и степень покрытия местности в баллах.